Location: Barbinfosse
(50.6833°N, 3.6667°E)
Time: 21:26:24
(UTC+00:00)

Daily predictions for brighter satellites

Satellite Brightness Start Highest point End
(mag) Time Altitude Azimuth Time Altitude Azimuth Time Altitude Azimuth
Cosmos 1626 Rocket 3.6 16:09:16 10° N 16:13:34 59° ENE 16:17:48 10° SSE
NOSS 2-2 (C) 2.8 16:13:05 10° SW 16:16:16 68° NW 16:19:15 10° NE
JB-3 4.1 16:12:37 10° NNE 16:16:17 72° ESE 16:19:53 10° S
BlueWalker 3 4.1 16:19:11 10° W 16:22:20 28° SW 16:25:28 10° SSE
Cosmos 1315 Rocket 3.0 16:18:33 10° SSW 16:22:22 71° WNW 16:26:12 10° N
ATLAS CENTAUR R/B 1.9 16:21:41 10° NW 16:24:50 48° SW 16:27:52 10° SSE
Thor Agena Rocket 3.6 16:22:46 10° SE 16:27:50 57° ENE 16:32:53 10° N
Cosmos 2219 4.3 16:23:15 10° NNW 16:27:53 24° NE 16:32:29 10° E
CENTAUR R/B 3.0 16:23:08 10° WSW 16:28:56 57° NW 16:36:19 10° NE
Cosmos 1484 Rocket 2.5 16:28:54 10° SSE 16:32:24 87° ENE 16:35:55 10° NNW
USA 290 2.1 16:29:09 10° NNW 16:32:25 81° ENE 16:35:41 10° SSE
Cosmos 1544 Rocket 3.6 16:28:38 10° S 16:32:59 63° E 16:37:23 10° NNE
SL-16 R/B 2.6 16:27:06 10° NNE 16:33:22 70° ESE 16:39:31 10° S
GEOS 3 Rocket 4.4 16:29:12 10° NE 16:34:15 39° ESE 16:39:15 10° S
Lacrosse 5 rocket 1.8 16:30:49 10° W 16:34:23 41° NNW 16:37:41 11° NE
Cosmos 1844 Rocket 4.4 16:31:36 10° N 16:34:30 14° NNE 16:37:19 10° NE
Cosmos 1980 Rocket 3.8 16:32:16 10° SE 16:35:13 15° E 16:37:57 11° ENE
Iridium 51 4.2 16:35:18 10° SSW 16:38:25 64° W 16:41:38 10° N
Lacrosse 4 Rocket 3.0 16:35:57 10° WSW 16:39:26 27° NW 16:42:52 10° NNE
BREEZE M DEB (TANK) 3.9 16:37:41 10° SSW 16:39:36 17° SSE 16:41:08 10° ESE
CORIOLIS 4.1 16:36:47 10° SSE 16:42:02 65° ENE 16:47:21 10° N
Cosmos 2263 Rocket 2.7 16:38:00 10° NNW 16:43:14 36° NE 16:48:26 10° ESE
IRIDIUM 104 4.5 16:38:16 10° N 16:43:24 53° E 16:48:29 10° SSE
Cosmos 2228 3.6 16:39:38 10° SSW 16:43:49 60° WNW 16:48:04 10° N
Cosmos 1777 Rocket 4.2 16:39:05 10° S 16:44:11 55° ESE 16:49:19 10° NNE
CZ-2D R/B 3.3 16:45:48 10° SE 16:48:42 35° ENE 16:51:37 10° N
Okean 1-7 Rocket 3.6 16:46:16 10° N 16:50:35 53° ENE 16:54:52 10° SSE
Cosmos 1602 Rocket 3.5 16:48:08 10° N 16:52:33 79° E 16:56:54 10° SSE
IRIDIUM 114 4.3 16:47:21 10° N 16:52:34 63° E 16:57:44 10° SSE
Cosmos 1461 2.9 16:51:45 10° SSW 16:55:33 56° SE 16:58:30 16° NE
Cosmos 1933 3.7 16:54:16 10° SSE 16:57:50 38° E 17:01:21 10° NNE
USA 215 3.6 16:53:50 14° ENE 16:59:25 52° N 17:05:44 10° WNW
Cosmos 2227 Rocket 2.1 16:54:15 10° NNW 16:59:53 68° ENE 17:05:31 10° SE
IRS-1C 4.1 16:54:46 10° SSE 17:00:02 67° ENE 17:05:20 10° N
YAOGAN 1 3.6 16:57:36 10° ESE 17:00:55 22° ENE 17:04:15 10° N
IRIDIUM 103 4.3 16:56:30 10° N 17:01:45 75° E 17:06:58 10° S
NOSS 2-3 (E) 4.5 16:59:14 10° S 17:02:12 23° ESE 17:03:39 18° E
Cosmos 1743 2.9 16:59:53 10° NNW 17:03:05 57° W 17:06:16 10° S
NOSS 7 (H) 4.1 17:00:34 10° NW 17:03:30 82° SW 17:06:39 10° SE
Cosmos 1486 Rocket 4.0 16:58:42 10° SSW 17:03:55 86° WNW 17:09:12 10° NNE
Cosmos 2369 Rocket 4.2 17:00:24 10° WNW 17:04:16 18° NNW 17:08:11 10° N
SJ-12 3.7 17:01:06 10° SSE 17:04:48 60° ENE 17:08:33 10° N
Cosmos 2151 3.1 17:02:29 10° NNW 17:06:40 77° W 17:10:49 10° S
Cosmos 2360 4.3 17:02:22 10° SSW 17:08:06 85° WNW 17:13:47 11° NNE
Cosmos 2279 Rocket 4.4 17:05:41 10° SSW 17:11:51 66° WNW 17:18:06 10° N
Cosmos 1655 Rocket 4.1 17:06:22 10° N 17:12:29 54° ENE 17:18:33 10° SSE
Cosmos 1867 3.9 17:09:20 10° NW 17:14:47 71° SW 17:20:11 10° SSE
Cosmos 1697 Rocket 2.8 17:09:23 10° S 17:14:51 57° ESE 17:19:15 16° NE
Cosmos 990 Rocket 4.1 17:10:20 10° S 17:15:16 51° ESE 17:19:09 16° NE
Cosmos 1953 Rocket 3.8 17:12:04 10° N 17:16:20 44° ENE 17:20:36 10° SSE
MOS 1 Rocket 3.4 17:12:40 10° SSE 17:17:35 70° ENE 17:22:48 10° N
Aureole 1 Rocket 4.3 17:14:03 10° SSE 17:17:53 27° E 17:19:37 22° ENE
SAR-Lupe-4 3.5 17:14:39 10° SSE 17:18:12 89° SW 17:21:48 10° NNW
IRIDIUM 106 4.5 17:14:50 10° N 17:20:05 79° W 17:25:17 10° S
NOSS 2-2 (D) 4.0 17:20:49 10° WSW 17:23:42 32° NW 17:25:10 20° NNE
Cosmos 1782 4.1 17:20:33 10° SW 17:23:52 34° WNW 17:27:12 10° N
ARIANE 5 R/B 2.6 17:19:54 10° SSE 17:24:58 79° WSW 17:30:09 10° NNW
Cosmos 1825 Rocket 3.4 17:21:22 10° N 17:25:45 87° E 17:30:03 10° S
Resurs 01 Rocket 3.9 17:29:45 10° NNE 17:29:45 10° NNE 17:29:52 10° NNE
SAR-Lupe-1 4.2 17:25:30 10° S 17:29:05 78° WSW 17:32:44 10° NNW
Cosmos 1680 Rocket 4.4 17:26:59 10° N 17:31:23 27° NE 17:31:45 26° ENE
Cosmos 2098 Rocket 4.3 17:27:58 10° SSW 17:32:06 45° WNW 17:36:57 10° N
USA 81 4.2 17:28:19 10° N 17:33:28 50° ENE 17:38:33 10° SSE
UNK 4.0 17:29:38 10° N 17:34:12 67° WNW 17:38:43 10° SSW
CZ-2D R/B 3.5 17:32:12 10° SSE 17:36:16 52° ENE 17:40:18 10° N
NOSS 3-2 (A) 4.0 17:33:02 10° WSW 17:38:08 45° NNW 17:42:25 19° NE
Gbstr 26 Del rocket 3.1 17:34:45 10° SW 17:38:39 50° SSE 17:39:37 39° ESE
IRAS Rocket 4.4 17:33:41 10° SE 17:38:55 49° ENE 17:44:10 10° N
NOSS 3-2 (C) 3.2 17:34:13 10° SW 17:39:23 78° NW 17:43:16 23° NE
SPOT 1/Viking Rocket 3.4 17:36:47 10° SSE 17:41:58 75° ENE 17:47:12 10° NNW
Cosmos 1076 Rocket 3.4 17:39:30 10° N 17:43:49 86° E 17:48:08 10° S
PSLV R/B 3.6 17:43:06 38° ESE 17:43:57 45° ENE 17:47:50 10° N
SMAP 4.5 17:39:47 10° SSW 17:44:10 40° W 17:48:34 10° NNW
NOSS 2-2 (E) 4.2 17:41:28 10° W 17:44:12 27° NW 17:45:00 24° N
[s.n.66845] 4.0 17:43:08 10° NNW 17:43:44 15° NNW 17:43:44 15° NNW
[s.n.66847] 4.0 17:43:34 10° NNW 17:44:10 15° NNW 17:44:10 15° NNW
[s.n.66846] 4.0 17:44:00 10° NNW 17:44:37 15° NNW 17:44:37 15° NNW
SJ-7 4.3 17:47:21 49° NE 17:47:21 49° NE 17:50:37 10° N
Cosmos 2082 3.8 17:41:32 10° NNW 17:47:09 54° NE 17:50:42 22° ESE
[s.n.66843] 4.0 17:44:33 10° NNW 17:45:09 15° NNW 17:45:09 15° NNW
CZ-4C R/B 3.9 17:40:31 10° NW 17:47:17 50° WSW 17:55:31 10° SSE
SL-19 R/B 4.2 17:42:22 10° SE 17:47:40 58° ENE 17:53:16 10° N
[s.n.66844] 4.0 17:45:00 10° NNW 17:45:35 15° NNW 17:45:35 15° NNW
[s.n.66842] 4.0 17:45:31 10° NNW 17:46:07 15° NNW 17:46:07 15° NNW
COSMO-SKYMED 1 3.2 17:49:12 34° SE 17:49:12 34° SE 17:52:13 10° SSE
[s.n.66841] 4.0 17:45:59 10° NNW 17:46:33 15° NNW 17:46:33 15° NNW
[s.n.66840] 4.1 17:46:29 10° NNW 17:47:03 15° NNW 17:47:03 15° NNW
IRS-P3 4.4 17:44:16 10° S 17:49:33 70° WSW 17:54:53 10° NNW
[s.n.66838] 4.1 17:46:58 10° NNW 17:47:32 15° NNW 17:47:32 15° NNW
[s.n.66839] 4.1 17:47:28 10° NNW 17:48:01 15° NNW 17:48:01 15° NNW
Cosmos 2058 Rocket 3.3 17:45:53 10° SSE 17:50:10 48° E 17:50:45 45° ENE
[s.n.66837] 4.1 17:47:55 10° NNW 17:48:28 15° NNW 17:48:28 15° NNW
[s.n.66836] 4.1 17:48:26 10° NNW 17:48:57 14° NNW 17:48:57 14° NNW
[s.n.66835] 4.1 17:48:56 10° NNW 17:49:28 14° NNW 17:49:28 14° NNW
Cosmos 2297 Rocket 4.4 17:47:26 10° NW 17:52:03 26° WSW 17:56:40 10° SSW
[s.n.66834] 4.1 17:49:26 10° NNW 17:49:57 14° NNW 17:49:57 14° NNW
[s.n.66833] 4.1 17:49:52 10° NNW 17:50:23 14° NNW 17:50:23 14° NNW
[s.n.66832] 4.1 17:50:24 10° NNW 17:50:56 14° NNW 17:50:56 14° NNW
[s.n.66831] 4.1 17:50:50 10° NNW 17:51:21 14° NNW 17:51:21 14° NNW
[s.n.66830] 4.2 17:51:16 10° NNW 17:51:46 14° NNW 17:51:46 14° NNW
[s.n.66828] 4.2 17:51:42 10° NNW 17:52:12 14° NNW 17:52:12 14° NNW
[s.n.66829] 4.2 17:52:14 10° NNW 17:52:44 14° NNW 17:52:44 14° NNW
[s.n.66827] 4.2 17:52:46 10° NNW 17:53:15 14° NNW 17:53:15 14° NNW
[s.n.66826] 4.2 17:53:17 10° NNW 17:53:44 14° NNW 17:53:44 14° NNW
[s.n.66825] 4.2 17:53:43 10° NNW 17:54:11 14° NNW 17:54:11 14° NNW
[s.n.66824] 4.2 17:54:15 10° NNW 17:54:42 14° NNW 17:54:42 14° NNW
[s.n.66823] 4.2 17:54:45 10° NNW 17:55:13 14° NNW 17:55:13 14° NNW
[s.n.66822] 4.3 17:55:15 10° NNW 17:55:41 14° NNW 17:55:41 14° NNW
[s.n.66821] 4.3 17:55:43 10° NNW 17:56:09 13° NNW 17:56:09 13° NNW
Cosmos 1538 Rocket 4.1 17:54:15 10° NNW 17:59:33 82° WSW 18:04:52 10° SSE
Cosmos 1606 Rocket 4.3 17:57:02 10° SSW 18:01:20 52° WNW 18:05:40 10° N
Nadezhda 2 Rocket 4.4 17:55:28 10° N 18:01:34 61° ENE 18:07:35 10° SSE
Meteor 1-26 Rocket 4.1 17:58:48 10° S 18:04:04 56° E 18:05:35 41° NE
Cosmos 1553 Rocket 4.0 18:05:26 10° S 18:11:26 57° E 18:14:52 27° NNE
Lacrosse 5 rocket 2.5 18:08:43 10° WNW 18:11:16 27° NNW 18:11:16 27° NNW
GEOS 3 Rocket 4.1 18:09:53 31° NNE 18:12:21 57° NW 18:17:37 10° WSW
Cosmos 2219 3.2 18:07:01 10° NNW 18:12:47 89° WSW 18:17:57 13° SSE
Resurs 1-3 3.5 18:08:30 10° SSE 18:12:48 85° WSW 18:17:08 10° NNW
BREEZE-M DEB (TANK) 3.7 18:11:24 10° WSW 18:12:05 21° WSW 18:12:05 21° WSW
SL-16 R/B 4.3 18:11:18 10° N 18:16:27 28° NW 18:21:34 10° WSW
Cosmos 1980 Rocket 2.0 18:12:38 10° SSW 18:18:17 79° ESE 18:19:44 51° NE
Cosmos 1844 Rocket 3.3 18:14:38 10° NNW 18:18:59 38° NNE 18:18:59 38° NNE
CENTAUR R/B 3.9 18:15:13 10° WNW 18:21:08 32° N 18:24:02 25° NNE
USA 281 4.3 18:22:44 26° NNE 18:22:44 26° NNE 18:26:55 10° NNW
Spot 4 Rocket 4.3 18:19:33 10° S 18:24:38 67° WSW 18:29:45 10° NNW
NOSS 2-3 (C) 4.0 18:21:28 10° SW 18:23:54 44° SW 18:23:54 44° SW
Cosmos 1745 Rocket 4.2 18:19:52 10° N 18:24:48 47° NE 18:24:48 47° NE
Cosmos 2263 Rocket 3.0 18:21:52 10° NW 18:27:21 51° WSW 18:32:48 10° S
Cosmos 1898 Rocket 3.3 18:25:16 10° SSW 18:30:11 76° SE 18:30:11 76° SE
Cosmos 2369 3.8 18:25:39 10° SSW 18:30:42 57° SE 18:30:42 57° SE
Cosmos 1461 4.4 18:29:13 10° W 18:32:34 26° NW 18:32:37 26° NNW
Cosmos 44 Rocket 4.2 18:28:32 10° NW 18:32:09 38° N 18:32:09 38° N
YAOGAN 1 3.4 18:32:23 10° S 18:36:30 48° W 18:40:39 10° NNW
SKYMED 2 4.3 18:36:02 40° NNW 18:37:04 50° WNW 18:41:16 10° SW
Cosmos-2242 3.5 18:33:03 10° SSW 18:36:35 54° SW 18:36:35 54° SW
USA 238 DEB 3.4 18:33:52 10° SW 18:40:03 90° NW 18:41:14 63° NE
USA 238 3.4 18:33:58 10° SW 18:40:09 89° SE 18:41:19 63° NE
Cosmos 923 Rocket 3.9 18:36:12 10° NNW 18:41:26 80° WSW 18:41:32 80° SW
USA 215 3.3 18:41:10 57° NE 18:41:58 61° NNE 18:48:24 10° WNW
Cosmos 372 Rocket 4.0 18:37:47 10° SSW 18:42:55 72° WNW 18:43:10 70° NW
Cosmos 2227 Rocket 4.4 18:39:02 10° NW 18:43:26 24° WSW 18:47:49 10° SSW
Cosmos 1937 Rocket 4.2 18:44:00 10° SSW 18:47:30 44° SSW 18:47:30 44° SSW
Cosmos 1386 Rocket 4.4 18:45:23 10° N 18:51:29 86° W 18:57:40 10° S
Cosmos 1697 Rocket 4.1 18:54:07 10° WSW 18:59:08 32° NW 19:00:59 26° N
Aureole 1 Rocket 4.2 18:55:06 10° SW 18:59:39 50° WNW 19:00:03 49° NW
COSMOS 2455 4.3 19:10:17 10° SSW 19:12:49 26° SSW 19:12:49 26° SSW
Cosmos 1980 Rocket 4.2 19:58:13 10° W 20:01:31 23° WNW 20:01:31 23° WNW
CENTAUR R/B 4.3 20:07:04 10° NW 20:11:08 29° NNW 20:11:08 29° NNW
